Piedras Negras, Mexico

2:01 AM CST on February 18, 2018 (GMT -0600)
Piedras Negras International

Weather History for MMPG - October, 2012

Change the Weather History Date:

Thursday, October 4, 2012

  Actual Average Record
Temperature  
Mean Temperature 84 °F -  
Max Temperature 100 °F 85 °F 100 °F (2012)
Min Temperature 68 °F 67 °F 59 °F (2010)
Cooling Degree Days 19    
Growing Degree Days 34 (Base 50)    
Moisture  
Dew Point 66 °F    
Average Humidity 59    
Maximum Humidity 100    
Minimum Humidity 25    
Precipitation  
Precipitation 0.00 in - - ()
Sea Level Pressure  
Sea Level Pressure 29.98 in    
Wind  
Wind Speed 4 mph ()    
Max Wind Speed 7 mph    
Max Gust Speed -    
Visibility 9.0 miles    
Events Fog    
Averages and records for this station are not official NWS values.
T = Trace of Precipitation, MM = Missing Value Source: Averaged Metar Reports

Daily Weather History Graph

Daily Weather History Graph

Search for Another Location

Airport or City:

Trip Planner

Search our weather history database for the weather conditions in past years. The results will help you decide how hot, cold, wet, or windy it might be!

Date:

Astronomy

Oct. 04, 2012 Rise Set
Actual Time 7:37 AM CDT 7:23 PM CDT
Civil Twilight 7:13 AM CDT 7:47 PM CDT
Nautical Twilight 6:46 AM CDT 8:14 PM CDT
Astronomical Twilight 6:18 AM CDT 8:42 PM CDT
Moon 10:22 PM CDT (10/4) 11:34 AM CDT (10/4)
Length of Visible Light 12h 33m
Length of Day
11h 46m
Waning Gibbous, 82% of the Moon is Illuminated
Oct 4
Waning Gibbous
Oct 8
Last Quarter
Oct 15
New
Oct 21
First Quarter
Oct 29
Full

Hourly Weather History & Observations

Time (CDT) Temp. Heat Index Dew Point Humidity Pressure Visibility Wind Dir Wind Speed Gust Speed Precip Events Conditions
12:40 AM 77 °F - 62 °F 51% 29.93 in 12 mi ENE 4.5 mph - -  
3:55 AM 73 °F - 60 °F 56% 29.95 in 12 mi ENE 4.5 mph - -  
6:40 AM 71 °F - 66 °F 81% 29.99 in 12 mi East 4.5 mph - -  
7:00 AM 68.0 °F - 66.2 °F 94% 29.90 in 2.0 mi Calm Calm - N/A   Haze
8:40 AM 68.0 °F - 68.0 °F 100% 30.01 in 0.2 mi ESE 6.9 mph - N/A Fog Fog
9:30 AM 73 °F - 68 °F 81% 30.01 in 14 mi East 2.2 mph - -   Mostly Cloudy
9:40 AM 69.8 °F - 68.0 °F 94% 29.95 in 1.0 mi ESE 5.8 mph - N/A   Haze
10:40 AM 77.0 °F - 69.8 °F 78% 30.03 in 5.0 mi East 5.8 mph - N/A   Scattered Clouds
11:40 AM 82.4 °F 86.3 °F 69.8 °F 66% 30.04 in 7.0 mi Calm Calm - N/A   Clear
12:30 PM 86 °F - 71 °F 52% 30.05 in 15 mi ESE 2.2 mph - -  
12:40 PM 86.0 °F 88.2 °F 66.2 °F 51% 29.95 in 8.0 mi Calm Calm - N/A   Clear
1:40 PM 89.6 °F 91.1 °F 64.4 °F 43% 30.03 in 8.0 mi East 6.9 mph - N/A   Clear
3:30 PM 95 °F - 76 °F 45% 29.93 in 15 mi NE 4.5 mph - -  
3:40 PM 93.2 °F 94.1 °F 62.6 °F 36% 29.99 in 8.0 mi East 5.8 mph - N/A   Clear
4:40 PM 96.8 °F 95.1 °F 55.4 °F 25% 29.98 in 8.0 mi East 5.8 mph - N/A   Clear
5:40 PM 96.8 °F 95.1 °F 55.4 °F 25% 29.98 in 8.0 mi East 5.8 mph - N/A   Clear
6:30 PM 98 °F - 71 °F 32% 29.93 in 15 mi ENE 2.2 mph - -  
7:40 PM 91.4 °F 94.0 °F 66.2 °F 43% 29.99 in 8.0 mi East 5.8 mph - N/A   Clear
9:35 PM 75 °F - 69 °F 75% 30.06 in 12 mi East 4.5 mph - -